SBI1007 UUDD-ULLI

Flight info

Callsign SBI1007
Flight time N/A
Altitude 36000
Route SUNUN4Q SUNUN M869 RAVKA N50 NUDKO T561 ODATI T875 GENPA GENPA1B
Aircraft A320/M-SDFGIJ1RWY/LB1

Departure

Time 2026-05-01 15:21
Airport Domodedovo International Airport (UUDD)

Arrival

Time N/A
Airport Pulkovo Airport (ULLI)
Time Latitude Longitude Altitude Speed Heading
2026-05-01 14:14 55.41253 37.89866 580 ft 0 kts 65°
2026-05-01 15:02 55.41251 37.89857 582 ft 3 kts 65°
2026-05-01 15:02 55.41242 37.89823 579 ft 3 kts 63°
2026-05-01 15:03 55.41231 37.89790 579 ft 3 kts 54°
2026-05-01 15:03 55.41220 37.89766 576 ft 3 kts 47°
2026-05-01 15:03 55.41207 37.89736 576 ft 3 kts 57°
2026-05-01 15:03 55.41198 37.89709 577 ft 3 kts 65°
2026-05-01 15:04 55.41192 37.89675 578 ft 3 kts 81°
2026-05-01 15:04 55.41189 37.89644 579 ft 3 kts 73°
2026-05-01 15:04 55.41180 37.89611 580 ft 3 kts 56°
2026-05-01 15:04 55.41173 37.89593 582 ft 0 kts 56°
2026-05-01 15:11 55.41186 37.89627 582 ft 3 kts 66°
2026-05-01 15:11 55.41166 37.89689 579 ft 8 kts 142°
2026-05-01 15:12 55.41118 37.89747 575 ft 9 kts 146°
2026-05-01 15:12 55.40997 37.89892 569 ft 10 kts 145°
2026-05-01 15:12 55.40939 37.89933 569 ft 7 kts 199°
2026-05-01 15:13 55.40815 37.89640 569 ft 12 kts 234°
2026-05-01 15:14 55.40702 37.89441 568 ft 12 kts 236°
2026-05-01 15:14 55.40655 37.89354 571 ft 9 kts 200°
2026-05-01 15:14 55.40554 37.89448 565 ft 8 kts 146°
2026-05-01 15:15 55.40510 37.89500 568 ft 3 kts 146°
2026-05-01 15:15 55.40459 37.89561 563 ft 9 kts 146°
2026-05-01 15:16 55.40321 37.89728 565 ft 12 kts 146°
2026-05-01 15:16 55.40188 37.89887 557 ft 11 kts 146°
2026-05-01 15:17 55.40066 37.90034 554 ft 10 kts 146°
2026-05-01 15:18 55.39896 37.90238 550 ft 12 kts 146°
2026-05-01 15:18 55.39815 37.90336 548 ft 15 kts 146°
2026-05-01 15:19 55.39611 37.90538 544 ft 8 kts 195°
2026-05-01 15:19 55.39546 37.90391 543 ft 11 kts 237°
2026-05-01 15:19 55.39532 37.90315 542 ft 5 kts 295°
2026-05-01 15:20 55.39546 37.90295 548 ft 0 kts 325°
2026-05-01 15:20 55.39561 37.90277 543 ft 19 kts 325°
2026-05-01 15:21 55.39886 37.89886 550 ft 90 kts 325°
2026-05-01 15:21 55.40562 37.89073 574 ft 144 kts 325°
2026-05-01 15:21 55.41498 37.87954 745 ft 169 kts 324°
2026-05-01 15:21 55.42429 37.86731 1461 ft 168 kts 313°
2026-05-01 15:22 55.43992 37.83632 2730 ft 169 kts 310°
2026-05-01 15:22 55.44732 37.82096 3389 ft 164 kts 310°
2026-05-01 15:22 55.45478 37.80570 3997 ft 160 kts 310°
2026-05-01 15:23 55.46128 37.78878 4260 ft 179 kts 287°
2026-05-01 15:23 55.46136 37.76594 4514 ft 200 kts 252°
2026-05-01 15:23 55.45401 37.74383 4719 ft 225 kts 237°
2026-05-01 15:23 55.44471 37.72043 5223 ft 238 kts 237°
2026-05-01 15:24 55.43505 37.69641 5965 ft 242 kts 233°
2026-05-01 15:24 55.42160 37.67845 6667 ft 252 kts 199°
2026-05-01 15:24 55.40374 37.67727 7096 ft 271 kts 164°
2026-05-01 15:24 55.38622 37.69121 7653 ft 282 kts 148°
2026-05-01 15:25 55.36986 37.71078 8404 ft 286 kts 143°
2026-05-01 15:25 55.35394 37.73217 9178 ft 290 kts 141°
2026-05-01 15:25 55.33822 37.75351 9930 ft 293 kts 141°
2026-05-01 15:25 55.32184 37.77522 10635 ft 296 kts 142°
2026-05-01 15:26 55.30513 37.79670 11333 ft 299 kts 142°
2026-05-01 15:26 55.28806 37.81808 12037 ft 303 kts 142°
2026-05-01 15:26 55.26951 37.83629 12715 ft 310 kts 155°
2026-05-01 15:26 55.24908 37.84721 13369 ft 316 kts 163°
2026-05-01 15:27 55.22760 37.85659 14022 ft 320 kts 162°
2026-05-01 15:27 55.20589 37.86616 14586 ft 324 kts 162°
2026-05-01 15:27 55.18388 37.87592 15198 ft 327 kts 161°
2026-05-01 15:28 55.13894 37.89333 16332 ft 339 kts 173°
2026-05-01 15:28 55.11510 37.89104 16873 ft 348 kts 189°
2026-05-01 15:28 55.09176 37.87780 17214 ft 362 kts 206°
2026-05-01 15:29 55.05199 37.82001 17868 ft 382 kts 227°
2026-05-01 15:29 55.03338 37.78730 18384 ft 387 kts 226°
2026-05-01 15:29 54.99471 37.72063 19317 ft 396 kts 226°
2026-05-01 15:30 54.95687 37.65023 20245 ft 400 kts 238°
2026-05-01 15:31 54.92773 37.46939 22096 ft 397 kts 271°
2026-05-01 15:31 54.93252 37.37561 22984 ft 385 kts 295°
2026-05-01 15:32 54.95685 37.29622 23904 ft 369 kts 319°
2026-05-01 15:32 54.99397 37.23634 24713 ft 364 kts 327°
2026-05-01 15:33 55.05169 37.14831 25960 ft 371 kts 328°
2026-05-01 15:34 55.10991 37.05875 27132 ft 376 kts 328°